EW4819 Weather Reports


time (UTC)temp
C
wind
direction
speed
KPH
gust
KPH
rain 1hr
cm
rain 24hr
cm
rain mn
cm
humidity
%
barometer
mb
20260505112003 16 14 8.0 19.3 0.00 0.00 0.00 65 1011.0
20260505111502 16 24 8.0 19.3 0.00 0.00 0.00 64 1011.0
20260505111002 16 18 6.4 17.7 0.00 0.00 0.00 64 1011.1
20260505110501 15 7 6.4 17.7 0.00 0.00 0.00 70 1011.1
20260505102002 15 354 6.4 14.5 0.00 0.00 0.00 73 1011.3
20260505101502 14 5 4.8 12.9 0.00 0.00 0.00 75 1011.3
20260505101002 14 346 4.8 14.5 0.00 0.00 0.00 76 1011.3
20260505100502 14 338 4.8 14.5 0.00 0.00 0.00 74 1011.3
20260505100002 15 349 4.8 16.1 0.00 0.00 0.00 73 1011.3
20260505095502 15 355 6.4 22.5 0.00 0.00 0.00 74 1011.3
20260505095001 15 14 6.4 22.5 0.00 0.00 0.00 73 1011.4
20260505094502 15 39 4.8 16.1 0.00 0.00 0.00 75 1011.5
20260505094023 14 45 6.4 16.1 0.00 0.00 0.00 76 1011.5
20260505093502 13 41 6.4 16.1 0.00 0.00 0.00 78 1011.5
20260505093002 13 39 6.4 16.1 0.00 0.00 0.00 80 1011.6
20260505092502 13 22 4.8 12.9 0.00 0.00 0.00 80 1011.6
20260505092002 13 15 4.8 12.9 0.00 0.00 0.00 81 1011.7
20260505091502 13 15 4.8 11.3 0.00 0.00 0.00 80 1011.8
20260505091003 13 3 4.8 9.7 0.00 0.00 0.00 80 1011.7
20260505090502 13 6 4.8 9.7 0.00 0.00 0.00 80 1011.7
20260505090025 13 359 4.8 9.7 0.00 0.00 0.00 80 1011.7
20260505085503 13 357 4.8 14.5 0.00 0.00 0.00 81 1011.8
20260505085002 13 6 3.2 14.5 0.00 0.00 0.00 81 1011.8
20260505084502 13 343 3.2 12.9 0.00 0.00 0.00 81 1011.8
20260505084004 13 338 4.8 17.7 0.00 0.00 0.00 80 1011.8
20260505083524 13 342 4.8 17.7 0.00 0.00 0.00 80 1011.8
20260505083003 13 343 3.2 9.7 0.00 0.00 0.00 80 1011.8
20260505082502 13 355 3.2 12.9 0.00 0.00 0.00 80 1011.8
20260505082003 13 13 3.2 12.9 0.00 0.00 0.00 80 1011.7
20260505081502 13 4 4.8 12.9 0.00 0.00 0.00 81 1011.7
20260505081023 13 355 4.8 12.9 0.00 0.00 0.00 82 1011.8
20260505080502 13 12 4.8 12.9 0.00 0.00 0.00 82 1011.9
20260505080002 12 24 4.8 12.9 0.00 0.00 0.00 82 1011.8
20260505075502 13 16 4.8 11.3 0.00 0.00 0.00 81 1011.8
20260505075002 13 16 3.2 9.7 0.00 0.00 0.00 82 1011.9
20260505074502 12 21 3.2 9.7 0.00 0.00 0.00 84 1011.8
20260505074002 12 16 3.2 11.3 0.00 0.00 0.00 85 1011.8
20260505073502 12 19 4.8 11.3 0.00 0.00 0.00 86 1011.7
20260505073002 12 359 3.2 12.9 0.00 0.00 0.00 87 1011.7
20260505072503 11 346 3.2 12.9 0.00 0.00 0.00 88 1011.6
20260505072002 11 349 3.2 12.9 0.00 0.00 0.00 89 1011.7
20260505071503 11 346 3.2 9.7 0.00 0.00 0.00 90 1011.8
20260505071002 11 356 3.2 9.7 0.00 0.00 0.00 90 1011.8
20260505070502 10 10 3.2 6.4 0.00 0.00 0.00 90 1011.8
20260505070002 10 6 1.6 6.4 0.00 0.00 0.00 91 1011.9
20260505065502 10 2 1.6 9.7 0.00 0.00 0.00 90 1011.9
20260505065023 10 2 1.6 9.7 0.00 0.00 0.00 91 1011.8
20260505064503 10 357 1.6 6.4 0.00 0.00 0.00 91 1011.8
20260505064002 10 358 1.6 6.4 0.00 0.00 0.00 91 1011.8
20260505063502 10 4 1.6 4.8 0.00 0.00 0.00 91 1012.0
20260505063023 10 7 1.6 6.4 0.00 0.00 0.00 91 1012.0
20260505062502 10 23 1.6 6.4 0.00 0.00 0.00 91 1011.9
20260505062023 10 24 1.6 4.8 0.00 0.00 0.00 91 1011.9
20260505061502 10 5 1.6 8.0 0.00 0.00 0.00 91 1011.8
20260505061002 10 353 1.6 8.0 0.00 0.00 0.00 91 1011.8
20260505060502 10 347 1.6 4.8 0.00 0.00 0.00 91 1011.8
20260505060002 10 17 1.6 8.0 0.00 0.00 0.00 91 1011.9
20260505055502 10 15 1.6 8.0 0.00 0.00 0.00 90 1011.9
20260505055002 10 1 0.0 4.8 0.00 0.00 0.00 91 1011.9
20260505054502 10 11 0.0 4.8 0.00 0.00 0.00 90 1011.9
20260505054002 10 34 1.6 8.0 0.00 0.00 0.00 91 1011.9
20260505053503 10 48 0.0 8.0 0.00 0.00 0.00 91 1011.9
20260505053003 10 31 0.0 4.8 0.00 0.00 0.00 90 1011.9
20260505052503 10 14 0.0 4.8 0.00 0.00 0.00 90 1011.8
20260505052003 10 10 0.0 4.8 0.00 0.00 0.00 90 1011.7
20260505051505 10 12 1.6 6.4 0.00 0.00 0.00 90 1011.7
20260505051004 10 11 1.6 6.4 0.00 0.00 0.00 90 1011.7
20260505050503 10 350 0.0 6.4 0.00 0.00 0.00 90 1011.7
20260505041502 10 2 1.6 4.8 0.00 0.00 0.00 90 1011.8
20260505041002 11 3 1.6 4.8 0.00 0.00 0.00 90 1011.8
20260505040523 11 356 0.0 4.8 0.00 0.00 0.00 90 1011.9
20260505040002 11 355 0.0 3.2 0.00 0.00 0.00 90 1011.9
20260505035502 11 357 0.0 3.2 0.00 0.00 0.00 90 1011.9
20260505035002 11 5 0.0 3.2 0.00 0.00 0.00 90 1011.9
20260505034502 11 334 0.0 3.2 0.00 0.00 0.00 90 1011.9
20260505034002 11 335 0.0 3.2 0.00 0.00 0.00 90 1011.9
20260505033502 11 343 0.0 3.2 0.00 0.00 0.00 90 1012.0
20260505033002 11 346 0.0 4.8 0.00 0.00 0.00 90 1011.9
20260505032502 11 351 0.0 4.8 0.00 0.00 0.00 90 1012.0
20260505032002 11 360 0.0 3.2 0.00 0.00 0.00 90 1012.0
20260505031502 11 360 0.0 3.2 0.00 0.00 0.00 90 1012.0
20260505031023 11 2 0.0 3.2 0.00 0.00 0.00 90 1012.0
20260505030502 11 346 0.0 4.8 0.00 0.00 0.00 90 1012.0
20260505030002 11 340 0.0 6.4 0.00 0.00 0.00 90 1012.0
20260505025502 11 341 0.0 6.4 0.00 0.00 0.00 90 1011.9
20260505025002 11 344 0.0 4.8 0.00 0.00 0.00 90 1012.0
20260505024502 11 355 0.0 4.8 0.00 0.00 0.00 90 1012.0
20260505024002 11 23 0.0 3.2 0.00 0.00 0.00 90 1012.0
20260505023502 11 23 0.0 3.2 0.00 0.00 0.00 90 1012.0
20260505023002 11 4 0.0 3.2 0.00 0.00 0.00 90 1011.9
20260505022504 11 358 0.0 3.2 0.00 0.00 0.00 90 1011.9
20260505022003 11 358 0.0 3.2 0.00 0.00 0.00 90 1011.9
20260505021504 12 5 0.0 3.2 0.00 0.00 0.00 90 1012.0
20260505021003 12 5 0.0 3.2 0.00 0.00 0.00 90 1011.9
20260505020504 12 0 0.0 1.6 0.00 0.00 0.00 90 1012.0
20260505020004 12 4 0.0 4.8 0.00 0.00 0.00 90 1012.0
20260505015502 12 4 0.0 4.8 0.00 0.00 0.00 90 1012.0
20260505015002 12 334 0.0 4.8 0.00 0.00 0.00 90 1012.0
20260505014502 12 325 0.0 4.8 0.00 0.00 0.00 90 1012.1
20260505014002 12 353 0.0 3.2 0.00 0.00 0.00 90 1012.2
20260505013502 12 354 0.0 3.2 0.00 0.00 0.00 90 1012.2
20260505013002 12 350 0.0 3.2 0.00 0.00 0.00 90 1012.3
20260505012502 12 357 0.0 1.6 0.00 0.00 0.00 90 1012.4
20260505012023 12 4 0.0 1.6 0.00 0.00 0.00 90 1012.4
20260505011502 12 348 0.0 3.2 0.00 0.00 0.00 90 1012.4
20260505011023 12 340 0.0 3.2 0.00 0.00 0.00 90 1012.4
20260505010523 12 331 0.0 3.2 0.00 0.00 0.00 90 1012.4
20260505010002 12 339 0.0 3.2 0.00 0.00 0.00 90 1012.5
20260505005523 12 331 0.0 3.2 0.00 0.00 0.00 90 1012.5
20260505005023 12 326 0.0 3.2 0.00 0.00 0.00 90 1012.5
20260505004504 12 309 0.0 1.6 0.00 0.00 0.00 90 1012.5
20260505004002 12 312 0.0 3.2 0.00 0.00 0.00 90 1012.5
20260505003502 12 320 0.0 3.2 0.00 0.00 0.00 90 1012.5
20260505003002 12 355 0.0 3.2 0.00 0.00 0.00 90 1012.6
20260505002524 12 355 0.0 3.2 0.00 0.00 0.00 90 1012.5
20260505002004 12 355 0.0 1.6 0.00 0.00 0.00 90 1012.6
20260505001502 12 355 0.0 3.2 0.00 0.00 0.00 90 1012.7
20260505001002 12 9 0.0 3.2 0.00 0.00 0.00 90 1012.6
20260505000503 12 2 0.0 3.2 0.00 0.00 0.00 90 1012.7
20260505000004 12 319 1.6 4.8 0.00 0.00 0.00 90 1012.7
20260504235503 12 320 1.6 4.8 0.00 0.00 0.00 90 1012.8
20260504235004 12 330 0.0 4.8 0.00 0.00 0.00 90 1012.8
20260504234502 12 356 0.0 3.2 0.00 0.00 0.00 90 1012.7
20260504234003 12 341 0.0 3.2 0.00 0.00 0.00 90 1012.8
20260504233503 12 308 0.0 1.6 0.00 0.00 0.00 90 1012.8
20260504233002 12 318 0.0 3.2 0.00 0.00 0.00 90 1012.8
20260504232503 12 327 0.0 3.2 0.00 0.00 0.00 90 1012.7
20260504232002 12 331 0.0 3.2 0.00 0.00 0.00 90 1012.7
20260504231504 12 340 0.0 3.2 0.00 0.00 0.00 90 1012.7
20260504231005 12 341 0.0 3.2 0.00 0.00 0.00 90 1012.7
20260504230504 12 339 0.0 4.8 0.00 0.00 0.00 90 1012.7
20260504230005 12 336 0.0 4.8 0.00 0.00 0.00 90 1012.8
20260504225504 12 348 0.0 4.8 0.00 0.00 0.00 90 1012.8
20260504225003 12 17 0.0 3.2 0.00 0.00 0.00 90 1012.8
20260504224503 12 349 0.0 4.8 0.00 0.00 0.00 90 1012.7
20260504224003 12 340 1.6 4.8 0.00 0.00 0.00 90 1012.6
20260504223503 12 341 0.0 4.8 0.00 0.00 0.00 90 1012.8
20260504223024 12 39 0.0 3.2 0.00 0.00 0.00 90 1012.9
20260504222503 12 38 0.0 3.2 0.00 0.00 0.00 89 1012.9
20260504222003 12 338 0.0 6.4 0.00 0.00 0.00 89 1012.9
20260504221524 12 347 0.0 6.4 0.00 0.00 0.00 89 1012.9
20260504221024 12 20 0.0 4.8 0.00 0.00 0.00 89 1012.9
20260504220524 12 360 1.6 4.8 0.00 0.00 0.00 89 1012.8
20260504220003 12 349 1.6 6.4 0.00 0.00 0.00 89 1012.8
20260504215503 12 19 0.0 4.8 0.00 0.00 0.00 89 1012.9
20260504215003 12 19 1.6 4.8 0.00 0.00 0.00 89 1012.9
20260504214503 13 7 1.6 4.8 0.00 0.00 0.00 89 1012.9
20260504214024 13 360 1.6 4.8 0.00 0.00 0.00 89 1013.0
20260504213503 13 350 1.6 4.8 0.00 0.00 0.00 89 1012.9
20260504213003 13 345 1.6 4.8 0.00 0.00 0.00 89 1012.9
20260504212502 13 349 1.6 8.0 0.00 0.00 0.00 89 1012.9
20260504212003 13 349 1.6 8.0 0.00 0.00 0.00 88 1012.9
20260504211503 13 350 0.0 4.8 0.00 0.00 0.00 88 1012.9
20260504211003 13 355 0.0 4.8 0.00 0.00 0.00 88 1012.9
20260504210503 13 15 1.6 6.4 0.00 0.00 0.00 88 1012.9
20260504210024 13 19 1.6 6.4 0.00 0.00 0.00 88 1012.9
20260504205525 13 19 1.6 6.4 0.00 0.00 0.00 88 1013.0
20260504205024 13 15 1.6 6.4 0.00 0.00 0.00 88 1013.0
20260504204524 13 360 1.6 4.8 0.00 0.00 0.00 87 1013.0
20260504204003 13 2 1.6 4.8 0.00 0.00 0.00 87 1013.0
20260504203503 13 9 0.0 3.2 0.00 0.00 0.00 87 1012.9
20260504203003 13 1 0.0 4.8 0.00 0.00 0.00 87 1012.9
20260504202503 13 3 1.6 4.8 0.00 0.00 0.00 87 1012.9
20260504202003 13 12 1.6 4.8 0.00 0.00 0.00 87 1012.9
20260504201503 13 21 1.6 4.8 0.00 0.00 0.00 86 1012.8
20260504201004 13 22 1.6 6.4 0.00 0.00 0.00 86 1012.8
20260504200524 13 23 1.6 6.4 0.00 0.00 0.00 86 1012.8
20260504200026 13 35 1.6 4.8 0.00 0.00 0.00 86 1012.8
20260504195504 13 39 1.6 6.4 0.00 0.00 0.00 86 1012.8
20260504195004 14 34 1.6 6.4 0.00 0.00 0.00 85 1012.8
20260504194503 14 43 1.6 11.3 0.00 0.00 0.00 85 1012.7
20260504194005 14 39 1.6 11.3 0.00 0.00 0.00 85 1012.7
20260504193503 14 30 1.6 6.4 0.00 0.00 0.00 85 1012.6
20260504193003 14 24 1.6 6.4 0.00 0.00 0.00 84 1012.5
20260504192503 14 17 1.6 4.8 0.00 0.00 0.00 84 1012.5
20260504192001 14 31 1.6 4.8 0.00 0.00 0.00 84 1012.5
20260504191501 15 57 0.0 4.8 0.00 0.00 0.00 84 1012.5
20260504191001 15 53 0.0 3.2 0.00 0.00 0.00 84 1012.4
20260504190522 15 39 1.6 8.0 0.00 0.00 0.00 84 1012.4
20260504190022 15 35 1.6 8.0 0.00 0.00 0.00 84 1012.4
20260504185522 15 38 1.6 8.0 0.00 0.00 0.00 83 1012.3
20260504185022 15 37 3.2 8.0 0.00 0.00 0.00 83 1012.3
20260504184501 15 26 1.6 6.4 0.00 0.00 0.00 83 1012.3
20260504184001 15 41 1.6 8.0 0.00 0.00 0.00 82 1012.2
20260504183501 15 56 1.6 8.0 0.00 0.00 0.00 82 1012.2
20260504183022 15 25 0.0 3.2 0.00 0.00 0.00 82 1012.2
20260504182501 15 45 1.6 4.8 0.00 0.00 0.00 81 1012.2
20260504182001 15 84 1.6 4.8 0.00 0.00 0.00 81 1012.2
20260504181522 15 134 0.0 3.2 0.00 0.00 0.00 80 1012.1
20260504181001 15 144 0.0 1.6 0.00 0.00 0.00 80 1012.1
20260504180522 15 146 1.6 4.8 0.00 0.00 0.00 80 1012.1
20260504180002 15 136 1.6 4.8 0.00 0.00 0.00 81 1012.1
20260504175501 15 90 1.6 6.4 0.00 0.00 0.00 81 1012.0
20260504175001 15 78 1.6 6.4 0.00 0.00 0.00 82 1012.0
20260504174501 15 65 1.6 6.4 0.00 0.00 0.00 81 1012.0
20260504174022 15 48 1.6 11.3 0.00 0.00 0.00 81 1012.0
20260504173501 15 44 3.2 14.5 0.00 0.00 0.00 81 1011.9
20260504173001 15 46 1.6 6.4 0.00 0.00 0.00 80 1011.9
20260504172503 15 45 1.6 11.3 0.00 0.00 0.00 80 1011.9
20260504172001 16 46 3.2 11.3 0.00 0.00 0.00 79 1011.9
20260504171501 16 48 4.8 9.7 0.00 0.00 0.00 77 1011.9
20260504171001 16 46 4.8 9.7 0.00 0.00 0.00 76 1011.9
20260504170502 16 50 3.2 14.5 0.00 0.00 0.00 75 1011.8
20260504151003 17 29 1.6 6.4 0.00 0.00 0.00 68 1011.7
20260504150501 17 11 3.2 8.0 0.00 0.00 0.00 69 1011.6
20260504141003 18 182 4.8 11.3 0.00 0.00 0.00 64 1011.7
20260504140502 18 179 4.8 11.3 0.00 0.00 0.00 63 1011.8
20260504130501 18 200 1.6 4.8 0.00 0.00 0.00 67 1011.8